Track ZHANGHENG-1 now! 10-day predictions ZHANGHENG-1 is classified as:
1 43194U 18015C 21110.61951453 .00002412 00000-0 11208-3 0 9999 2 43194 97.4691 238.4331 0015281 110.8429 305.3481 15.20862829178356